Date,Installs,Update checks
2014-11-16,47,41
2014-11-17,34,75
2014-11-18,36,110
2014-11-19,17,101
2014-11-20,13,124
2014-11-21,11,113
2014-11-22,10,109
2014-11-23,8,124
2014-11-24,10,134
2014-11-25,15,131
2014-11-26,8,148
2014-11-27,4,128
2014-11-28,4,139
2014-11-29,7,134
2014-11-30,14,124
2014-12-01,2,157
2014-12-02,3,138
2014-12-03,7,157
2014-12-04,4,145
2014-12-05,10,157
2014-12-06,11,141
2014-12-07,6,137
2014-12-08,12,140
2014-12-09,14,140
2014-12-10,9,151
2014-12-11,1,151
2014-12-12,5,156
2014-12-13,8,143
2014-12-14,11,135
2014-12-15,8,153
2014-12-16,5,137
2014-12-17,7,156
2014-12-18,8,132
2014-12-19,3,162
2014-12-20,3,122
2014-12-21,7,132
2014-12-22,7,135
2014-12-23,6,144
2014-12-24,5,138
2014-12-25,3,126
2014-12-26,15,155
2014-12-27,11,148
2014-12-28,11,137
2014-12-29,8,169
2014-12-30,10,176
2014-12-31,1,158
2015-01-01,8,155
2015-01-02,5,162
2015-01-03,8,175
2015-01-04,5,157
2015-01-05,3,168
2015-01-06,1,158
2015-01-07,8,165
2015-01-08,2,155
2015-01-09,3,167
2015-01-10,8,170
2015-01-11,10,158
2015-01-12,10,180
2015-01-13,7,168
2015-01-14,6,184
2015-01-15,6,162
2015-01-16,3,193
2015-01-17,1,155
2015-01-18,2,168
2015-01-19,2,170
2015-01-20,4,173
2015-01-21,4,169
2015-01-22,4,158
2015-01-23,5,149
2015-01-24,4,150
2015-01-25,5,156
2015-01-26,4,178
2015-01-27,4,155
2015-01-28,3,170
2015-01-29,2,135
2015-01-30,4,164
2015-01-31,3,145
2015-02-01,4,150
2015-02-02,8,144
2015-02-03,5,158
2015-02-04,10,167
2015-02-05,5,143
2015-02-06,8,179
2015-02-07,2,177
2015-02-08,3,175
2015-02-09,3,190
2015-02-10,5,157
2015-02-11,4,197
2015-02-12,3,182
2015-02-13,1,202
2015-02-14,2,178
2015-02-15,6,182
2015-02-16,6,205
2015-02-17,16,207
2015-02-18,19,203
2015-02-19,28,224
2015-02-20,23,232
2015-02-21,26,239
2015-02-22,30,261
2015-02-23,11,273
2015-02-24,24,305
2015-02-25,11,343
2015-02-26,9,326
2015-02-27,13,330
2015-02-28,11,361
2015-03-01,7,319
2015-03-02,10,350
2015-03-03,10,334
2015-03-04,12,341
2015-03-05,5,350
2015-03-06,9,347
2015-03-07,11,327
2015-03-08,11,317
2015-03-09,8,373
2015-03-10,1,343
2015-03-11,6,348
2015-03-12,12,332
2015-03-13,5,378
2015-03-14,7,327
2015-03-15,4,339
2015-03-16,3,353
2015-03-17,9,331
2015-03-18,5,355
2015-03-19,8,353
2015-03-20,5,361
2015-03-21,6,349
2015-03-22,5,336
2015-03-23,14,381
2015-03-24,11,351
2015-03-25,10,368
2015-03-26,6,353
2015-03-27,9,368
2015-03-28,12,341
2015-03-29,13,342
2015-03-30,16,374
2015-03-31,7,387
2015-04-01,11,380
2015-04-02,11,356
2015-04-03,9,368
2015-04-04,13,351
2015-04-05,16,347
2015-04-06,21,349
2015-04-07,12,379
2015-04-08,10,362
2015-04-09,14,372
2015-04-10,9,394
2015-04-11,9,387
2015-04-12,19,340
2015-04-13,11,389
2015-04-14,8,373
2015-04-15,8,378
2015-04-16,6,379
2015-04-17,7,381
2015-04-18,6,361
2015-04-19,16,364
2015-04-20,14,393
2015-04-21,11,385
2015-04-22,17,400
2015-04-23,9,360
2015-04-24,9,383
2015-04-25,9,364
2015-04-26,11,344
2015-04-27,10,402
2015-04-28,7,366
2015-04-29,9,404
2015-04-30,4,379
2015-05-01,6,360
2015-05-02,4,365
2015-05-03,13,355
2015-05-04,8,402
2015-05-05,9,378
2015-05-06,16,424
2015-05-07,11,380
2015-05-08,14,433
2015-05-09,5,392
2015-05-10,7,392
2015-05-11,7,400
2015-05-12,5,392
2015-05-13,6,397
2015-05-14,6,402
2015-05-15,12,411
2015-05-16,9,355
2015-05-17,10,402
2015-05-18,7,407
2015-05-19,7,403
2015-05-20,9,426
2015-05-21,4,375
2015-05-22,13,414
2015-05-23,20,376
2015-05-24,18,389
2015-05-25,9,411
2015-05-26,7,395
2015-05-27,8,387
2015-05-28,1,72
2015-05-29,11,526
2015-05-30,8,342
2015-05-31,16,442
2015-06-01,15,387
2015-06-02,12,436
2015-06-03,9,399
2015-06-04,2,438
2015-06-05,3,400
2015-06-06,10,419
2015-06-07,5,360
2015-06-08,4,452
2015-06-09,6,370
2015-06-10,11,451
2015-06-11,10,378
2015-06-12,10,449
2015-06-13,8,343
2015-06-14,5,385
2015-06-15,7,287
2015-06-16,6,453
2015-06-17,8,408
2015-06-18,13,412
2015-06-19,6,389
2015-06-20,3,371
2015-06-21,6,361
2015-06-22,5,391
2015-06-23,8,400
2015-06-24,6,408
2015-06-25,3,399
2015-06-26,4,415
2015-06-27,3,366
2015-06-28,3,373
2015-06-29,7,418
2015-06-30,4,394
2015-07-01,7,394
2015-07-02,4,388
2015-07-03,1,393
2015-07-04,3,395
2015-07-05,8,370
2015-07-06,4,399
2015-07-07,4,376
2015-07-08,1,391
2015-07-09,5,383
2015-07-10,3,392
2015-07-11,10,381
2015-07-12,6,372
2015-07-13,3,371
2015-07-14,0,374
2015-07-15,5,377
2015-07-16,7,371
2015-07-17,5,385
2015-07-18,12,373
2015-07-19,6,366
2015-07-20,3,400
2015-07-21,8,369
2015-07-22,7,402
2015-07-23,5,407
2015-07-24,6,395
2015-07-25,6,407
2015-07-26,3,382
2015-07-27,2,450
2015-07-28,2,395
2015-07-29,2,454
2015-07-30,3,390
2015-07-31,3,418
2015-08-01,4,371
2015-08-02,7,361
2015-08-03,2,422
2015-08-04,3,386
2015-08-05,1,403
2015-08-06,1,353
2015-08-07,4,380
2015-08-08,8,385
2015-08-09,4,350
2015-08-10,2,394
2015-08-11,1,361
2015-08-12,0,405
2015-08-13,1,364
2015-08-14,7,383
2015-08-15,5,341
2015-08-16,4,359
2015-08-17,11,385
2015-08-18,7,369
2015-08-19,6,394
2015-08-20,3,377
2015-08-21,5,382
2015-08-22,12,359
2015-08-23,9,351
2015-08-24,5,372
2015-08-25,13,352
2015-08-26,13,365
2015-08-27,7,368
2015-08-28,2,359
2015-08-29,8,335
2015-08-30,11,331
2015-08-31,14,376
2015-09-01,28,390
2015-09-02,36,436
2015-09-03,25,376
2015-09-04,15,406
2015-09-05,16,374
2015-09-06,14,432
2015-09-07,16,399
2015-09-08,6,423
2015-09-09,19,404
2015-09-10,12,405
2015-09-11,16,429
2015-09-12,27,390
2015-09-13,15,395
2015-09-14,16,442
2015-09-15,17,443
2015-09-16,8,449
2015-09-17,14,427
2015-09-18,16,459
2015-09-19,18,414
2015-09-20,14,405
2015-09-21,14,465
2015-09-22,8,448
2015-09-23,13,443
2015-09-24,17,418
2015-09-25,10,453
2015-09-26,11,410
2015-09-27,13,408
2015-09-28,12,446
2015-09-29,12,415
2015-09-30,6,446
2015-10-01,5,392
2015-10-02,8,391
2015-10-03,8,372
2015-10-04,16,385
2015-10-05,12,409
2015-10-06,12,420
2015-10-07,17,424
2015-10-08,10,480
2015-10-09,13,457
2015-10-10,7,464
2015-10-11,16,449
2015-10-12,10,473
2015-10-13,10,450
2015-10-14,5,491
2015-10-15,12,458
2015-10-16,8,471
2015-10-17,3,449
2015-10-18,13,434
2015-10-19,11,457
2015-10-20,8,463
2015-10-21,10,444
2015-10-22,12,437
2015-10-23,11,452
2015-10-24,22,443
2015-10-25,14,433
2015-10-26,6,476
2015-10-27,7,431
2015-10-28,9,455
2015-10-29,7,422
2015-10-30,16,461
2015-10-31,8,408
2015-11-01,6,414
2015-11-02,10,434
2015-11-03,7,419
2015-11-04,2,437
2015-11-05,3,418
2015-11-06,7,411
2015-11-07,9,396
2015-11-08,6,384
2015-11-09,8,425
2015-11-10,11,403
2015-11-11,6,418
2015-11-12,6,396
2015-11-13,5,403
2015-11-14,16,392
2015-11-15,12,362
2015-11-16,8,397
2015-11-17,10,370
2015-11-18,8,385
2015-11-19,6,395
2015-11-20,11,380
2015-11-21,10,352
2015-11-22,6,351
2015-11-23,3,403
2015-11-24,7,340
2015-11-25,3,380
2015-11-26,9,343
2015-11-27,16,375
2015-11-28,12,338
2015-11-29,29,367
2015-11-30,16,412
2015-12-01,8,378
2015-12-02,14,375
2015-12-03,18,364
2015-12-04,12,373
2015-12-05,11,370
2015-12-06,35,348
2015-12-07,24,405
2015-12-08,18,409
2015-12-09,19,408
2015-12-10,15,431
2015-12-11,10,414
2015-12-12,14,371
2015-12-13,25,436
2015-12-14,20,463
2015-12-15,17,440
2015-12-16,7,466
2015-12-17,14,430
2015-12-18,8,471
2015-12-19,13,425
2015-12-20,12,429
2015-12-21,18,447
2015-12-22,12,451
2015-12-23,16,425
2015-12-24,17,436
2015-12-25,12,422
2015-12-26,14,411
2015-12-27,13,409
2015-12-28,21,449
2015-12-29,18,438
2015-12-30,17,458
2015-12-31,15,439
2016-01-01,15,417
2016-01-02,20,391
2016-01-03,10,414
2016-01-04,8,461
2016-01-05,9,414
2016-01-06,8,441
2016-01-07,11,416
2016-01-08,8,457
2016-01-09,15,413
2016-01-10,5,409
2016-01-11,4,457
2016-01-12,5,405
2016-01-13,9,445
2016-01-14,12,409
2016-01-15,10,439
2016-01-16,10,389
2016-01-17,7,394
2016-01-18,9,453
2016-01-19,3,408
2016-01-20,7,434
2016-01-21,8,397
2016-01-22,11,417
2016-01-23,5,384
2016-01-24,9,393
2016-01-25,12,415
2016-01-26,9,400
2016-01-27,26,430
2016-01-28,14,422
2016-01-29,14,441
2016-01-30,16,406
2016-01-31,17,393
2016-02-01,20,451
2016-02-02,13,408
2016-02-03,15,447
2016-02-04,12,403
2016-02-05,12,381
2016-02-06,6,382
2016-02-07,7,308
2016-02-08,7,350
2016-02-09,9,338
2016-02-10,11,321
2016-02-11,9,282
2016-02-12,7,358
2016-02-13,14,378
2016-02-14,7,364
2016-02-15,4,414
2016-02-16,4,379
2016-02-17,11,411
2016-02-18,11,402
2016-02-19,7,403
2016-02-20,10,383
2016-02-21,12,384
2016-02-22,14,421
2016-02-23,13,386
2016-02-24,5,430
2016-02-25,7,395
2016-02-26,15,434
2016-02-27,9,370
2016-02-28,6,384
2016-02-29,9,407
2016-03-01,10,377
2016-03-02,11,410
2016-03-03,12,384
2016-03-04,9,409
2016-03-05,5,366
2016-03-06,5,372
2016-03-07,5,406
2016-03-08,6,415
2016-03-09,10,449
2016-03-10,12,394
2016-03-11,7,426
2016-03-12,5,392
2016-03-13,8,392
2016-03-14,6,429
2016-03-15,5,379
2016-03-16,10,413
2016-03-17,5,399
2016-03-18,5,432
2016-03-19,7,390
2016-03-20,4,370
2016-03-21,6,403
2016-03-22,11,390
2016-03-23,5,424
2016-03-24,4,371
2016-03-25,5,389
2016-03-26,15,374
2016-03-27,7,367
2016-03-28,8,423
2016-03-29,6,407
2016-03-30,6,409
2016-03-31,11,390
2016-04-01,8,382
2016-04-02,18,367
2016-04-03,4,324
2016-04-04,5,376
2016-04-05,11,391
2016-04-06,7,390
2016-04-07,10,394
2016-04-08,5,391
2016-04-09,4,348
2016-04-10,9,307
2016-04-11,12,429
2016-04-12,8,360
2016-04-13,10,425
2016-04-14,4,368
2016-04-15,8,428
2016-04-16,10,365
2016-04-17,11,383
2016-04-18,2,405
2016-04-19,8,415
2016-04-20,4,399
2016-04-21,8,400
2016-04-22,2,405
2016-04-23,9,392
2016-04-24,4,360
2016-04-25,7,432
2016-04-26,7,395
2016-04-27,8,419
2016-04-28,8,407
2016-04-29,5,419
2016-04-30,9,345
2016-05-01,10,365
2016-05-02,7,359
2016-05-03,3,454
2016-05-04,3,374
2016-05-05,6,427
2016-05-06,4,397
2016-05-07,3,363
2016-05-08,3,376
2016-05-09,3,421
2016-05-10,2,419
2016-05-11,4,401
2016-05-12,4,400
2016-05-13,5,422
2016-05-14,4,382
2016-05-15,6,371
2016-05-16,3,426
2016-05-17,5,392
2016-05-18,6,424
2016-05-19,7,411
2016-05-20,4,414
2016-05-21,8,387
2016-05-22,4,369
2016-05-23,5,433
2016-05-24,5,405
2016-05-25,5,448
2016-05-26,5,424
2016-05-27,6,470
2016-05-28,10,392
2016-05-29,7,433
2016-05-30,7,491
2016-05-31,5,453
2016-06-01,7,523
2016-06-02,2,468
2016-06-03,5,517
2016-06-04,8,425
2016-06-05,2,462
2016-06-06,1,502
2016-06-07,4,461
2016-06-08,4,499
2016-06-09,8,401
2016-06-10,4,411
2016-06-11,6,448
2016-06-12,6,485
2016-06-13,1,481
2016-06-14,4,479
2016-06-15,2,477
2016-06-16,3,468
2016-06-17,7,502
2016-06-18,4,425
2016-06-19,4,426
2016-06-20,5,507
2016-06-21,6,467
2016-06-22,2,515
2016-06-23,8,451
2016-06-24,6,509
2016-06-25,3,415
2016-06-26,3,422
2016-06-27,6,502
2016-06-28,8,459
2016-06-29,5,484
2016-06-30,5,458
2016-07-01,3,508
2016-07-02,3,411
2016-07-03,6,424
2016-07-04,3,515
2016-07-05,2,430
2016-07-06,4,502
2016-07-07,5,444
2016-07-08,3,486
2016-07-09,7,430
2016-07-10,3,423
2016-07-11,2,494
2016-07-12,5,457
2016-07-13,7,471
2016-07-14,2,462
2016-07-15,4,480
2016-07-16,5,412
2016-07-17,9,443
2016-07-18,2,502
2016-07-19,2,440
2016-07-20,5,483
2016-07-21,5,465
2016-07-22,8,475
2016-07-23,6,421
2016-07-24,6,421
2016-07-25,1,474
2016-07-26,3,449
2016-07-27,2,491
2016-07-28,0,456
2016-07-29,5,486
2016-07-30,6,406
2016-07-31,1,378
2016-08-01,5,490
2016-08-02,3,442
2016-08-03,5,521
2016-08-04,3,425
2016-08-05,8,465
2016-08-06,10,392
2016-08-07,5,394
2016-08-08,6,503
2016-08-09,2,441
2016-08-10,7,466
2016-08-11,7,455
2016-08-12,2,469
2016-08-13,4,411
2016-08-14,7,404
2016-08-15,8,442
2016-08-16,3,432
2016-08-17,3,466
2016-08-18,5,433
2016-08-19,4,460
2016-08-20,5,407
2016-08-21,6,394
2016-08-22,8,482
2016-08-23,3,424
2016-08-24,1,445
2016-08-25,6,436
2016-08-26,3,480
2016-08-27,9,378
2016-08-28,2,412
2016-08-29,4,480
2016-08-30,12,437
2016-08-31,3,433
2016-09-01,3,458
2016-09-02,4,435
2016-09-03,5,407
2016-09-04,4,398
2016-09-05,2,450
2016-09-06,5,433
2016-09-07,6,459
2016-09-08,1,427
2016-09-09,5,461
2016-09-10,6,388
2016-09-11,6,402
2016-09-12,7,458
2016-09-13,5,415
2016-09-14,7,445
2016-09-15,6,372
2016-09-16,7,383
2016-09-17,7,407
2016-09-18,4,421
2016-09-19,4,442
2016-09-20,8,445
2016-09-21,2,410
2016-09-22,3,452
2016-09-23,11,433
2016-09-24,4,392
2016-09-25,8,411
2016-09-26,5,471
2016-09-27,8,406
2016-09-28,4,440
2016-09-29,3,417
2016-09-30,15,435
2016-10-01,7,369
2016-10-02,9,367
2016-10-03,10,384
2016-10-04,7,367
2016-10-05,11,388
2016-10-06,6,397
2016-10-07,6,400
2016-10-08,3,432
2016-10-09,4,397
2016-10-10,5,479
2016-10-11,1,403
2016-10-12,8,452
2016-10-13,6,432
2016-10-14,6,438
2016-10-15,7,404
2016-10-16,0,377
2016-10-17,5,449
2016-10-18,1,423
2016-10-19,3,451
2016-10-20,5,432
2016-10-21,10,419
2016-10-22,5,411
2016-10-23,7,395
2016-10-24,7,463
2016-10-25,13,429
2016-10-26,6,449
2016-10-27,4,429
2016-10-28,4,430
2016-10-29,8,379
2016-10-30,8,386
2016-10-31,10,493
2016-11-01,11,417
2016-11-02,8,478
2016-11-03,9,426
2016-11-04,9,419
2016-11-05,12,387
2016-11-06,21,387
2016-11-07,18,489
2016-11-08,10,400
2016-11-09,3,462
2016-11-10,3,433
2016-11-11,8,441
2016-11-12,7,396
2016-11-13,8,384
2016-11-14,10,471
2016-11-15,8,433
2016-11-16,10,464
2016-11-17,17,438
2016-11-18,8,515
2016-11-19,11,417
2016-11-20,6,420
2016-11-21,7,492
2016-11-22,13,456
2016-11-23,3,462
2016-11-24,8,472
2016-11-25,4,467
2016-11-26,8,434
2016-11-27,13,413
2016-11-28,2,507
2016-11-29,8,475
2016-11-30,5,486
2016-12-01,3,451
2016-12-02,5,500
2016-12-03,4,419
2016-12-04,8,449
2016-12-05,7,478
2016-12-06,11,501
2016-12-07,8,472
2016-12-08,4,470
2016-12-09,9,462
2016-12-10,5,446
2016-12-11,9,418
2016-12-12,6,513
2016-12-13,5,423
2016-12-14,5,508
2016-12-15,6,447
2016-12-16,5,493
2016-12-17,10,404
2016-12-18,5,462
2016-12-19,2,490
2016-12-20,11,446
2016-12-21,4,488
2016-12-22,7,444
2016-12-23,7,472
2016-12-24,7,407
2016-12-25,12,421
2016-12-26,4,478
2016-12-27,6,463
2016-12-28,6,479
2016-12-29,6,433
2016-12-30,3,470
2016-12-31,4,368
2017-01-01,13,413
2017-01-02,6,410
2017-01-03,11,503
2017-01-04,11,462
2017-01-05,11,490
2017-01-06,6,452
2017-01-07,7,468
2017-01-08,9,415
2017-01-09,7,536
2017-01-10,9,439
2017-01-11,5,484
2017-01-12,6,438
2017-01-13,10,483
2017-01-14,4,422
2017-01-15,3,419
2017-01-16,1,501
2017-01-17,5,422
2017-01-18,5,466
2017-01-19,5,437
2017-01-20,5,458
2017-01-21,4,385
2017-01-22,6,443
2017-01-23,8,415
2017-01-24,7,408
2017-01-25,4,403
2017-01-26,6,362
2017-01-27,3,347
2017-01-28,7,333
2017-01-29,5,328
2017-01-30,8,348
2017-01-31,8,364
2017-02-01,7,381
2017-02-02,4,391
2017-02-03,13,421
2017-02-04,2,417
2017-02-05,7,397
2017-02-06,8,487
2017-02-07,3,449
2017-02-08,5,486
2017-02-09,7,439
2017-02-10,8,451
2017-02-11,5,425
2017-02-12,5,394
2017-02-13,4,478
2017-02-14,4,446
2017-02-15,9,462
2017-02-16,4,428
2017-02-17,10,476
2017-02-18,5,434
2017-02-19,8,426
2017-02-20,6,482
2017-02-21,11,455
2017-02-22,5,491
2017-02-23,9,445
2017-02-24,9,463
2017-02-25,3,403
2017-02-26,6,395
2017-02-27,3,467
2017-02-28,3,429
2017-03-01,3,470
2017-03-02,4,402
2017-03-03,0,446
2017-03-04,10,393
2017-03-05,2,404
2017-03-06,2,470
2017-03-07,3,423
2017-03-08,2,459
2017-03-09,6,428
2017-03-10,7,469
2017-03-11,6,405
2017-03-12,5,397
2017-03-13,6,481
2017-03-14,6,416
2017-03-15,6,447
2017-03-16,5,412
2017-03-17,6,445
2017-03-18,4,409
2017-03-19,5,372
2017-03-20,3,478
2017-03-21,2,429
2017-03-22,4,458
2017-03-23,2,423
2017-03-24,5,450
2017-03-25,9,400
2017-03-26,3,402
2017-03-27,1,469
2017-03-28,7,410
2017-03-29,4,470
2017-03-30,2,459
2017-03-31,1,484
2017-04-01,6,397
2017-04-02,4,373
2017-04-03,6,386
2017-04-04,5,385
2017-04-05,2,452
2017-04-06,5,408
2017-04-07,3,468
2017-04-08,1,393
2017-04-09,5,421
2017-04-10,4,470
2017-04-11,7,394
2017-04-12,6,465
2017-04-13,6,429
2017-04-14,3,417
2017-04-15,2,418
2017-04-16,7,393
2017-04-17,5,434
2017-04-18,6,411
2017-04-19,1,439
2017-04-20,3,408
2017-04-21,8,463
2017-04-22,5,17
2017-04-23,0,536
2017-04-24,4,372
2017-04-25,3,446
2017-04-26,7,409
2017-04-27,5,451
2017-04-28,2,393
2017-04-29,2,399
2017-04-30,4,358
2017-05-01,6,396
2017-05-02,1,418
2017-05-03,3,423
2017-05-04,2,428
2017-05-05,4,417
2017-05-06,5,396
2017-05-07,9,384
2017-05-08,0,451
2017-05-09,5,415
2017-05-10,6,441
2017-05-11,7,439
2017-05-12,3,421
2017-05-13,1,374
2017-05-14,3,352
2017-05-15,4,448
2017-05-16,4,355
2017-05-17,2,430
2017-05-18,0,381
2017-05-19,1,414
2017-05-20,6,344
2017-05-21,4,383
2017-05-22,4,403
2017-05-23,4,373
2017-05-24,5,403
2017-05-25,2,381
2017-05-26,5,414
2017-05-27,2,382
2017-05-28,2,336
2017-05-29,5,377
2017-05-30,3,327
2017-05-31,1,436
2017-06-01,1,369
2017-06-02,1,412
2017-06-03,7,332
2017-06-04,5,345
2017-06-05,4,429
2017-06-06,3,341
2017-06-07,3,394
2017-06-08,5,355
2017-06-09,4,406
2017-06-10,4,362
2017-06-11,8,370
2017-06-12,5,400
2017-06-13,8,371
2017-06-14,2,405
2017-06-15,5,388
2017-06-16,5,393
2017-06-17,4,369
2017-06-18,3,350
2017-06-19,7,406
2017-06-20,3,355
2017-06-21,6,415
2017-06-22,7,374
2017-06-23,0,415
2017-06-24,6,370
2017-06-25,2,348
2017-06-26,2,421
2017-06-27,3,378
2017-06-28,0,400
2017-06-29,4,343
2017-06-30,3,408
2017-07-01,2,352
2017-07-02,2,371
2017-07-03,9,408
2017-07-04,5,358
2017-07-05,8,397
2017-07-06,3,360
2017-07-07,2,387
2017-07-08,4,347
2017-07-09,7,349
2017-07-10,2,384
2017-07-11,2,356
2017-07-12,3,379
2017-07-13,1,374
2017-07-14,6,361
2017-07-15,2,362
2017-07-16,1,322
2017-07-17,4,400
2017-07-18,3,345
2017-07-19,2,400
2017-07-20,2,359
2017-07-21,2,414
2017-07-22,3,299
2017-07-23,3,319
2017-07-24,0,351
2017-07-25,2,334
2017-07-26,2,270
2017-07-27,3,323
2017-07-28,5,313
2017-07-29,1,293
2017-07-30,10,291
2017-07-31,5,326
2017-08-01,1,330
2017-08-02,5,298
2017-08-03,2,322
2017-08-04,7,318
2017-08-05,1,304
2017-08-06,5,288
2017-08-07,4,345
2017-08-08,5,316
2017-08-09,3,307
2017-08-10,4,306
2017-08-11,5,329
2017-08-12,5,287
2017-08-13,4,296
2017-08-14,9,322
2017-08-15,4,318
2017-08-16,2,286
2017-08-17,6,292
2017-08-18,5,299
2017-08-19,5,287
2017-08-20,5,252
2017-08-21,2,302
2017-08-22,2,306
2017-08-23,7,207
2017-08-24,6,279
2017-08-25,1,249
2017-08-26,1,240
2017-08-27,4,220
2017-08-28,6,283
2017-08-29,4,251
2017-08-30,4,261
2017-08-31,2,251
2017-09-01,3,263
2017-09-02,1,222
2017-09-03,4,232
2017-09-04,3,283
2017-09-05,4,248
2017-09-06,4,180
2017-09-07,2,245
2017-09-08,3,234
2017-09-09,0,227
2017-09-10,0,226
2017-09-11,5,243
2017-09-12,6,208
2017-09-13,1,179
2017-09-14,2,243
2017-09-15,1,242
2017-09-16,4,207
2017-09-17,5,193
2017-09-18,1,231
2017-09-19,1,218
2017-09-20,2,221
2017-09-21,1,202
2017-09-22,0,208
2017-09-23,5,206
2017-09-24,2,194
2017-09-25,4,211
2017-09-26,1,213
2017-09-27,4,216
2017-09-28,3,202
2017-09-29,4,217
2017-09-30,3,196
2017-10-01,1,178
2017-10-02,1,168
2017-10-03,1,186
2017-10-04,4,202
2017-10-05,6,184
2017-10-06,1,183
2017-10-07,3,193
2017-10-08,3,211
2017-10-09,1,203
2017-10-10,4,222
2017-10-11,2,213
2017-10-12,1,205
2017-10-13,5,208
2017-10-14,0,206
2017-10-15,6,217
2017-10-16,5,220
2017-10-17,2,213
2017-10-18,7,227
2017-10-19,5,225
2017-10-20,3,229
2017-10-21,9,212
2017-10-22,3,191
2017-10-23,5,242
2017-10-24,3,227
2017-10-25,2,235
2017-10-26,3,208
2017-10-27,0,223
2017-10-28,4,206
2017-10-29,8,230
2017-10-30,1,245
2017-10-31,1,213
2017-11-01,3,235
2017-11-02,3,222
2017-11-03,3,214
2017-11-04,6,202
2017-11-05,1,208
2017-11-06,2,119
2017-11-07,1,237
2017-11-08,1,214
2017-11-09,2,205
2017-11-10,2,223
2017-11-11,2,211
2017-11-12,0,196
2017-11-13,3,219
2017-11-14,0,220
2017-11-15,0,196
2017-11-16,1,205
2017-11-17,0,189
2017-11-18,1,180
2017-11-19,3,166
2017-11-20,3,211
2017-11-21,3,190
2017-11-22,1,175
2017-11-23,5,191
2017-11-24,3,184
2017-11-25,1,171
2017-11-26,1,169
2017-11-27,1,190
2017-11-28,3,184
2017-11-29,0,182
2017-11-30,2,174
2017-12-01,3,176
2017-12-02,4,164
2017-12-03,1,160
2017-12-04,4,191
2017-12-05,4,197
2017-12-06,1,199
2017-12-07,3,187
2017-12-08,2,190
2017-12-09,2,180
2017-12-10,2,167
2017-12-11,1,218
2017-12-12,2,176
2017-12-13,0,182
2017-12-14,2,203
2017-12-15,2,173
2017-12-16,1,168
2017-12-17,3,168
2017-12-18,0,180
2017-12-19,1,193
2017-12-20,0,178
2017-12-21,2,192
2017-12-22,3,173
2017-12-23,1,177
2017-12-24,3,175
2017-12-25,0,196
2017-12-26,0,191
2017-12-27,2,166
2017-12-28,2,179
2017-12-29,2,157
2017-12-30,2,168
2017-12-31,4,139
2018-01-01,2,200
2018-01-02,2,214
2018-01-03,0,198
2018-01-04,3,195
2018-01-05,0,199
2018-01-06,0,218
2018-01-07,0,193
2018-01-08,2,209
2018-01-09,0,185
2018-01-10,5,201
2018-01-11,2,195
2018-01-12,1,212
2018-01-13,1,219
2018-01-14,1,177
2018-01-15,0,197
2018-01-16,3,200
2018-01-17,2,210
2018-01-18,0,203
2018-01-19,1,209
2018-01-20,2,181
2018-01-21,3,173
2018-01-22,0,213
2018-01-23,1,198
2018-01-24,3,199
2018-01-25,6,197
2018-01-26,6,195
2018-01-27,4,182
2018-01-28,3,183
2018-01-29,1,218
2018-01-30,1,187
2018-01-31,2,189
2018-02-01,4,193
2018-02-02,4,190
2018-02-03,4,203
2018-02-04,5,174
2018-02-05,5,232
2018-02-06,2,230
2018-02-07,0,227
2018-02-08,1,191
2018-02-09,1,231
2018-02-10,3,183
2018-02-11,0,229
2018-02-12,0,192
2018-02-13,1,194
2018-02-14,0,176
2018-02-15,0,188
2018-02-16,0,165
2018-02-17,2,165
2018-02-18,0,165
2018-02-19,0,178
2018-02-20,0,184
2018-02-21,1,184
2018-02-22,0,214
2018-02-23,1,195
2018-02-24,4,203
2018-02-25,5,197
2018-02-26,4,215
2018-02-27,0,214
2018-02-28,2,207
2018-03-01,0,193
2018-03-02,3,203
2018-03-03,2,196
2018-03-04,1,194
2018-03-05,5,215
2018-03-06,1,203
2018-03-07,0,184
2018-03-08,1,210
2018-03-09,1,208
2018-03-10,3,177
2018-03-11,0,206
2018-03-12,1,202
2018-03-13,0,207
2018-03-14,3,199
2018-03-15,1,203
2018-03-16,1,203
2018-03-17,1,201
2018-03-18,0,176
2018-03-19,3,205
2018-03-20,1,183
2018-03-21,4,187
2018-03-22,2,196
2018-03-23,6,189
2018-03-24,2,201
2018-03-25,1,180
2018-03-26,3,222
2018-03-27,1,220
2018-03-28,2,193
2018-03-29,3,209
2018-03-30,3,214
2018-03-31,3,179
2018-04-01,4,188
2018-04-02,2,219
2018-04-03,1,197
2018-04-04,1,185
2018-04-05,2,164
2018-04-06,2,164
2018-04-07,0,165
2018-04-08,0,180
2018-04-09,3,181
2018-04-10,3,205
2018-04-11,3,185
2018-04-12,3,198
2018-04-13,1,210
2018-04-14,0,199
2018-04-15,0,196
2018-04-16,0,195
2018-04-17,1,200
2018-04-18,1,175
2018-04-19,0,193
2018-04-20,2,198
2018-04-21,3,186
2018-04-22,2,173
2018-04-23,1,199
2018-04-24,0,187
2018-04-25,0,188
2018-04-26,1,193
2018-04-27,2,191
2018-04-28,0,170
2018-04-29,4,154
2018-04-30,0,158
2018-05-01,0,164
2018-05-02,6,202
2018-05-03,0,177
2018-05-04,1,190
2018-05-05,3,173
2018-05-06,3,158
2018-05-07,1,187
2018-05-08,1,182
2018-05-09,2,191
2018-05-10,3,198
2018-05-11,5,204
2018-05-12,3,163
2018-05-13,1,158
2018-05-14,1,191
2018-05-15,1,171
2018-05-16,0,175
2018-05-17,0,182
2018-05-18,4,179
2018-05-19,1,133
2018-05-20,6,171
2018-05-21,2,200
2018-05-22,5,178
2018-05-23,1,194
2018-05-24,1,186
2018-05-25,2,189
2018-05-26,3,158
2018-05-27,2,173
2018-05-28,1,170
2018-05-29,2,182
2018-05-30,2,181
2018-05-31,3,176
2018-06-01,2,174
2018-06-02,0,157
2018-06-03,0,131
2018-06-04,1,158
2018-06-05,0,157
2018-06-06,2,154
2018-06-07,4,166
2018-06-08,6,188
2018-06-09,6,149
2018-06-10,2,147
2018-06-11,3,171
2018-06-12,1,170
2018-06-13,3,153
2018-06-14,0,178
2018-06-15,2,146
2018-06-16,4,143
2018-06-17,2,140
2018-06-18,3,148
2018-06-19,3,159
2018-06-20,2,76
2018-06-21,4,93
2018-06-22,6,174
2018-06-23,3,143
2018-06-24,3,138
2018-06-25,1,156
2018-06-26,1,161
2018-06-27,2,153
2018-06-28,8,155
2018-06-29,2,165
2018-06-30,5,147
2018-07-01,2,148
2018-07-02,2,148
2018-07-03,4,140
2018-07-04,4,154
2018-07-05,0,146
2018-07-06,1,167
2018-07-07,0,146
2018-07-08,0,136
2018-07-09,1,144
2018-07-10,3,154
2018-07-11,5,167
2018-07-12,1,144
2018-07-13,2,156
2018-07-14,2,140
2018-07-15,3,150
2018-07-16,4,159
2018-07-17,0,156
2018-07-18,0,150
2018-07-19,1,161
2018-07-20,2,160
2018-07-21,1,132
2018-07-22,3,158
2018-07-23,4,153
2018-07-24,3,152
2018-07-25,3,150
2018-07-26,3,165
2018-07-27,4,151
2018-07-28,2,120
2018-07-29,5,141
2018-07-30,3,151
2018-07-31,2,150
2018-08-01,2,156
2018-08-02,4,138
2018-08-03,2,155
2018-08-04,3,137
2018-08-05,2,145
2018-08-06,1,139
2018-08-07,1,149
2018-08-08,4,158
2018-08-09,3,158
2018-08-10,3,143
2018-08-11,3,146
2018-08-12,4,142
2018-08-13,1,166
2018-08-14,3,148
2018-08-15,3,159
2018-08-16,2,151
2018-08-17,3,148
2018-08-18,3,143
2018-08-19,2,142
2018-08-20,5,161
2018-08-21,2,159
2018-08-22,2,153
2018-08-23,7,141
2018-08-24,1,144
2018-08-25,1,152
2018-08-26,1,143
2018-08-27,5,160
2018-08-28,3,179
2018-08-29,2,158
2018-08-30,5,142
2018-08-31,4,163
2018-09-01,2,123
2018-09-02,2,142
2018-09-03,2,152
2018-09-04,3,138
2018-09-05,1,147
2018-09-06,3,151
2018-09-07,4,146
2018-09-08,5,141
2018-09-09,4,134
2018-09-10,0,148